Terminal Aerodrome Forecast
Issued by NWS

Home | Current Version | Previous Version | Text Only | Print | Product List | Glossary On
Versions: 1 2 3 4 5 6 7 8 9 10 11 12 13 14 15 16 17 18 19 20 21 22
613
FTUS43 KDVN 150101 AAA
TAFCID
TAF AMD
KCID 150101Z 1501/1524 16009KT 6SM BR BKN005 OVC110
     FM150200 19009KT 6SM BR VCSH SCT007 OVC060
     FM150400 29014KT 4SM BR BKN012 OVC035
     FM150600 29017G26KT 5SM BR OVC006
     FM151200 31020G30KT P6SM OVC015
     FM151800 31015G29KT P6SM SCT020=

USA.gov is the U.S. government's official web portal to all federal, state and local government web resources and services.